カタログに戻る

THORAD DELTA 1 DEB

運用中LEO
NORAD 17728·DEBRIS·🇺🇸 United States

打ち上げ Nov 15, 1974 から Vandenberg Space Force Base

Loading…

次のパス (今後24時間)

TLE

最新Source: Space-Track

元期: Sep 14, 2026, 08:09 UTC

1 17728U 74089EX  26257.33997203 -.00000010  00000-0  23976-3 0  9993
2 17728 101.4867  40.3636 0106221  73.4166 316.7538 12.35164174873280

AllMySatでTHORAD DELTA 1 DEBをリアルタイム追跡

Download on the App Store